This demonstration page uses our WeatherBlox Daily Observations layout. Learn more.

Left ArrowRight Arrow

Hourly Observations for April 10, 2015

Temp ( °F °C ) Dew Point ( °F °C ) Humidity (%) Winds ( mph kmh ) Pressure ( in mb ) Visibility ( mi km ) Precip ( " mm )
12:53 am 00:53 Clear 72 22.2 61 16.1 68 68 S 13 20 29.71 1006 10 16.0934 0 0
1:53 am 01:53 Mostly Cloudy 73 22.8 61 16.1 66 66 SSW 14 22 29.71 1006 10 16.0934 0 0
2:19 am 02:19 Cloudy with Light Thunderstorms 72 22.2 62 16.7 71 71 SSW 13 20 29.71 1006 8 12.87472 0.01 0.254
2:53 am 02:53 Cloudy with Thunderstorms 70 21.1 63 17.2 79 79 SW 22 35 29.72 1006 3 4.82802 0.08 2.032
3:00 am 03:00 Cloudy with Heavy Thunderstorms 67 19.4 63 17.2 87 87 SW 10 17 29.71 1006 2.5 4.02335 0.05 1.27
3:11 am 03:11 Cloudy with Heavy Thunderstorms 65 18.3 62 16.7 90 90 W 26 43 29.74 1007 1.5 2.41401 0.16 4.064
3:21 am 03:21 Cloudy with Thunderstorms 65 18.3 63 17.2 93 93 WSW 16 26 29.74 1007 3 4.82802 0.19 4.826
3:40 am 03:40 Cloudy with Nearby Thunderstorms 65 18.3 64 17.8 97 97 SW 6 9 29.74 1007 9 14.48406 0.21 5.334
3:49 am 03:49 Cloudy with Light Rain 64 18 63 17 94 94 WSW 6 9 29.71 1006 8 12.87472 0.22 5.588
3:53 am 03:53 Cloudy with Light Rain 65 18.3 63 17.2 93 93 WSW 6 9 29.71 1006 8 12.87472 0.22 5.588
4:53 am 04:53 Clear 63 17.2 59 15 87 87 WSW 7 11 29.67 1005 10 16.0934 0.02 0.508
5:18 am 05:18 Mostly Cloudy 63 17.2 59 15 87 87 WSW 10 17 29.71 1006 10 16.0934 0 0
5:53 am 05:53 Cloudy 62 16.7 56 13.3 80 80 W 23 37 29.72 1007 10 16.0934 0 0
6:32 am 06:32 Cloudy 59 15 49 9.4 69 69 W 18 30 29.74 1007 10 16.0934 0 0
6:53 am 06:53 Cloudy 58 14.4 50 10 75 75 W 18 30 29.75 1008 10 16.0934 0 0
7:39 am 07:39 Mostly Cloudy 57 13.9 49 9.4 74 74 W 10 17 29.8 1009 10 16.0934 0 0
7:53 am 07:53 Cloudy 56 13.3 49 9.4 77 77 W 10 17 29.8 1009 10 16.0934 0 0
8:53 am 08:53 Cloudy 54 12.2 45 7.2 72 72 W 17 28 29.86 1011 10 16.0934 0 0
9:19 am 09:19 Cloudy 53 11.7 43 6.1 69 69 W 16 26 29.91 1013 10 16.0934 0 0
9:42 am 09:42 Cloudy 53 11.7 43 6.1 69 69 W 12 19 29.94 1014 10 16.0934 0 0
9:53 am 09:53 Cloudy 53 11.7 43 6.1 69 69 WNW 13 20 29.91 1013 10 16.0934 0 0
10:19 am 10:19 Mostly Cloudy 53 11.7 40 4.4 61 61 W 17 28 29.97 1015 10 16.0934 0 0
10:53 am 10:53 Mostly Cloudy 53 11.7 40 4.4 61 61 WNW 21 33 29.96 1015 10 16.0934 0 0
11:44 am 11:44 Cloudy 51 10.6 40 4.4 66 66 W 16 26 30.03 1017 10 16.0934 0 0
11:53 am 11:53 Cloudy 51 10.6 39 3.9 64 64 W 18 30 30 1016 10 16.0934 0 0
12:28 pm 12:28 Cloudy 52 11.1 40 4.4 64 64 W 14 22 30.03 1017 10 16.0934 0 0
12:53 pm 12:53 Mostly Cloudy 52 11.1 40 4.4 64 64 W 13 20 30.01 1016 10 16.0934 0 0
1:53 pm 13:53 Mostly Sunny 57 13.9 40 4.4 53 53 WNW 9 15 30 1016 10 16.0934 0 0
2:53 pm 14:53 Mostly Sunny 61 16.1 41 5 48 48 WNW 13 20 30.01 1016 10 16.0934 0 0
3:53 pm 15:53 Sunny 62 16.7 40 4.4 44 44 W 12 19 30.01 1016 10 16.0934 0 0
4:53 pm 16:53 Sunny 63 17.2 38 3.3 40 40 W 13 20 30 1016 10 16.0934 0 0
5:53 pm 17:53 Sunny 63 17.2 38 3.3 40 40 W 13 20 29.99 1016 10 16.0934 0 0
6:53 pm 18:53 Sunny 63 17.2 37 2.8 38 38 WSW 10 17 29.99 1016 10 16.0934 0 0
7:53 pm 19:53 Sunny 61 16.1 37 2.8 41 41 W 7 11 30 1016 10 16.0934 0 0
8:53 pm 20:53 Clear 56 13.3 41 5 57 57 SW 3 6 30.02 1017 10 16.0934 0 0
9:53 pm 21:53 Clear 57 13.9 37 2.8 47 47 SSW 5 7 30.03 1017 10 16.0934 0 0
10:53 pm 22:53 Mostly Clear 56 13.3 38 3.3 51 51 SW 5 7 30.04 1017 10 16.0934 0 0
11:53 pm 23:53 Mostly Clear 54 12.2 35 1.7 49 49 NW 14 22 30.09 1019 10 16.0934 0 0

Powered by AerisWeather